Location: Unspecified
(40.2513°N, 0.0000°E)
Time: 20:34:55
(UTC+00:00)

Spot 2 Rocket - Visible Passes

Search period start: 04 April 2026 00:00
Search period end: 14 April 2026 00:00
Orbit: 751 x 767 km, 98.3° (Epoch: 29 March)

Date Brightness Start Highest point End Pass type
(mag) Time Alt. Az. Time Alt. Az. Time Alt. Az.
4 Apr 5.3 19:27:58 12° E 19:29:23 14° ENE 19:31:52 10° NNE visible
4 Apr 3.7 21:08:02 69° WNW 21:08:02 69° WNW 21:12:40 10° NNW visible
5 Apr 3.7 20:28:52 47° E 20:29:05 48° ENE 20:33:55 10° N visible
5 Apr 5.7 22:08:55 18° W 22:08:55 18° W 22:11:44 10° NW visible
6 Apr 4.8 19:49:41 20° E 19:50:46 22° ENE 19:54:31 10° NNE visible
6 Apr 4.4 21:29:45 43° W 21:29:45 43° W 21:34:09 10° NNW visible
7 Apr 3.3 20:50:34 77° E 20:50:40 78° ENE 20:55:43 10° N visible
7 Apr 6.2 22:30:38 11° W 22:30:38 11° W 22:31:37 10° WNW visible
8 Apr 4.2 20:11:24 31° E 20:12:13 33° ENE 20:16:42 10° N visible
8 Apr 5.2 21:51:27 27° W 21:51:27 27° W 21:55:21 10° NW visible
9 Apr 5.2 19:32:13 13° E 19:33:59 15° ENE 19:36:50 10° NNE visible
9 Apr 3.7 21:12:17 65° WSW 21:12:18 65° WSW 21:17:19 10° NNW visible
10 Apr 3.6 20:33:07 50° E 20:33:44 53° ENE 20:38:38 10° N visible
10 Apr 5.8 22:13:10 17° W 22:13:10 17° W 22:16:09 10° NW visible
11 Apr 4.7 19:53:57 21° E 19:55:23 24° ENE 19:59:19 10° NNE visible
11 Apr 4.5 21:34:00 40° W 21:34:00 40° W 21:38:44 10° NNW visible
12 Apr 5.5 19:16:16 10° ENE 19:17:16 11° ENE 19:18:16 10° NE visible
12 Apr 3.3 20:54:50 73° SSE 20:55:20 86° ENE 21:00:23 10° NNW visible
13 Apr 4.1 20:15:39 32° E 20:16:51 37° ENE 20:21:26 10° N visible
13 Apr 5.2 21:55:43 25° W 21:55:47 25° W 21:59:52 10° NW visible
